Weather History for Moncks Corner, SC

Change the Weather History Date:

Wednesday, October 3, 2012

  Actual Average (KCHS) Record (KCHS)
Temperature  
Mean Temperature 78 °F 71 °F  
Max Temperature 82 °F 80 °F 93 °F (1986)
Min Temperature 73 °F 62 °F 42 °F (1974)
Degree Days  
Heating Degree Days 0 1  
Month to date heating degree days 3  
Since 1 July heating degree days 6  
Cooling Degree Days 12 7  
Month to date cooling degree days 21  
Year to date cooling degree days 2159  
Growing Degree Days 28 (Base 50)    
Moisture  
Dew Point 71 °F    
Average Humidity 80    
Maximum Humidity 94    
Minimum Humidity 62    
Precipitation  
Precipitation 0.00 in 0.16 in 3.28 in (1994)
Month to date precipitation 0.49  
Year to date precipitation 42.23  
Sea Level Pressure  
Sea Level Pressure 30.09 in    
Wind  
Wind Speed 2 mph (SW)    
Max Wind Speed 8 mph    
Max Gust Speed -    
Visibility 9 miles    
Events Rain    
T = Trace of Precipitation, MM = Missing Value Source: NWS Daily Summary

Daily Weather History Graph

Daily Weather History Graph

Search for Another Location

Airport:

Trip Planner

Search our weather history database for the weather conditions in past years. The results will help you decide how hot, cold, wet, or windy it might be!

Date:

Astronomy

Oct. 03, 2012 Rise Set
Actual Time 7:16 AM EDT 7:01 PM EDT
Civil Twilight 6:51 AM EDT 7:26 PM EDT
Nautical Twilight 6:22 AM EDT 7:54 PM EDT
Astronomical Twilight 5:53 AM EDT 8:23 PM EDT
Moon 9:05 PM EDT (10/3) 10:25 AM EDT (10/3)
Length of Visible Light 12h 34m
Length of Day
11h 45m
Waning Gibbous, 89% of the Moon is Illuminated
Oct 3
Waning Gibbous
Oct 8
Last Quarter
Oct 15
New
Oct 21
First Quarter
Oct 29
Full

Hourly Weather History & Observations

Time (EDT) Temp. Heat Index Dew Point Humidity Pressure Visibility Wind Dir Wind Speed Gust Speed Precip Events Conditions
12:15 AM 77.0 °F - 73.4 °F 89% 30.00 in 10.0 mi South 4.6 mph - N/A   Clear
12:35 AM 77.0 °F - 73.4 °F 89% 30.00 in 10.0 mi South 4.6 mph - N/A   Clear
12:55 AM 77.0 °F - 73.4 °F 89% 30.00 in 10.0 mi South 4.6 mph - N/A   Clear
1:15 AM 77.0 °F - 73.4 °F 89% 30.00 in 7.0 mi Calm Calm - N/A   Clear
1:35 AM 77.0 °F - 73.4 °F 89% 30.00 in 7.0 mi Calm Calm - N/A   Clear
1:55 AM 77.0 °F - 73.4 °F 89% 30.00 in 7.0 mi Calm Calm - N/A   Clear
2:15 AM 77.0 °F - 73.4 °F 89% 30.00 in 7.0 mi Calm Calm - N/A   Clear
2:35 AM 77.0 °F - 73.4 °F 89% 30.00 in 7.0 mi Calm Calm - N/A   Clear
2:55 AM 77.0 °F - 73.4 °F 89% 30.00 in 7.0 mi Calm Calm - N/A   Clear
3:15 AM 77.0 °F - 75.2 °F 94% 30.01 in 7.0 mi Calm Calm - N/A   Clear
3:35 AM 77.0 °F - 75.2 °F 94% 30.01 in 7.0 mi Calm Calm - N/A   Clear
3:55 AM 77.0 °F - 73.4 °F 89% 30.00 in 7.0 mi Calm Calm - N/A   Clear
4:15 AM 77.0 °F - 73.4 °F 89% 30.00 in 7.0 mi Calm Calm - N/A   Scattered Clouds
4:35 AM 77.0 °F - 73.4 °F 89% 30.01 in 7.0 mi Calm Calm - N/A   Scattered Clouds
4:55 AM 77.0 °F - 75.2 °F 94% 30.01 in 7.0 mi Calm Calm - N/A   Mostly Cloudy
5:15 AM 77.0 °F - 75.2 °F 94% 30.03 in 7.0 mi Calm Calm - N/A   Scattered Clouds
5:35 AM 77.0 °F - 75.2 °F 94% 30.03 in 7.0 mi Calm Calm - N/A   Clear
5:55 AM 77.0 °F - 73.4 °F 89% 30.04 in 7.0 mi SW 4.6 mph - N/A   Clear
6:15 AM 77.0 °F - 73.4 °F 89% 30.04 in 10.0 mi SW 3.5 mph - N/A   Clear
6:55 AM 75.2 °F - 71.6 °F 89% 30.05 in 10.0 mi Calm Calm - N/A   Clear
7:15 AM 75.2 °F - 71.6 °F 89% 30.06 in 10.0 mi Calm Calm - N/A   Clear
7:35 AM 75.2 °F - 71.6 °F 89% 30.07 in 10.0 mi Calm Calm - N/A   Clear
7:55 AM 75.2 °F - 71.6 °F 89% 30.08 in 7.0 mi Calm Calm - N/A   Clear
8:15 AM 75.2 °F - 71.6 °F 89% 30.08 in 10.0 mi Calm Calm - N/A   Clear
8:35 AM 75.2 °F - 71.6 °F 89% 30.08 in 7.0 mi Calm Calm - N/A   Clear
8:55 AM 77.0 °F - 73.4 °F 89% 30.10 in 10.0 mi South 3.5 mph - N/A   Clear
9:15 AM 77.0 °F - 73.4 °F 89% 30.09 in 10.0 mi SSW 4.6 mph - N/A   Clear
9:35 AM 78.8 °F - 71.6 °F 78% 30.10 in 7.0 mi SW 4.6 mph - N/A   Clear
9:55 AM 80.6 °F 83.9 °F 69.8 °F 70% 30.11 in 7.0 mi SSW 6.9 mph - N/A   Clear
10:15 AM 80.6 °F 83.9 °F 69.8 °F 70% 30.11 in 10.0 mi SW 3.5 mph - N/A   Clear
10:35 AM 80.6 °F 83.9 °F 69.8 °F 70% 30.12 in 10.0 mi SW 4.6 mph - N/A   Clear
10:55 AM 80.6 °F 83.2 °F 68.0 °F 65% 30.12 in 7.0 mi SSW 3.5 mph - N/A   Clear
11:15 AM 80.6 °F 83.2 °F 68.0 °F 65% 30.13 in 7.0 mi SW 8.1 mph - N/A   Clear
11:35 AM 80.6 °F 83.9 °F 69.8 °F 70% 30.13 in 10.0 mi WSW 5.8 mph - N/A   Clear
11:55 AM 80.6 °F 83.9 °F 69.8 °F 70% 30.13 in 10.0 mi WSW 4.6 mph - N/A   Clear
12:15 PM 80.6 °F 83.9 °F 69.8 °F 70% 30.13 in 10.0 mi Calm Calm - N/A   Clear
12:35 PM 82.4 °F 86.3 °F 69.8 °F 66% 30.13 in 10.0 mi Calm Calm - N/A   Clear
12:55 PM 82.4 °F 86.3 °F 69.8 °F 66% 30.12 in 10.0 mi SW 5.8 mph - N/A   Clear
1:15 PM 82.4 °F 86.3 °F 69.8 °F 66% 30.12 in 10.0 mi SW 3.5 mph - N/A   Clear
1:35 PM 82.4 °F 86.3 °F 69.8 °F 66% 30.11 in 10.0 mi South 5.8 mph - N/A   Scattered Clouds
1:55 PM 82.4 °F 85.4 °F 68.0 °F 62% 30.11 in 10.0 mi Calm Calm - N/A   Clear
2:15 PM 82.4 °F 86.3 °F 69.8 °F 66% 30.11 in 10.0 mi WSW 4.6 mph - N/A   Clear
2:35 PM 82.4 °F 86.3 °F 69.8 °F 66% 30.11 in 10.0 mi SW 4.6 mph - N/A   Clear
2:55 PM 82.4 °F 86.3 °F 69.8 °F 66% 30.10 in 10.0 mi SW 4.6 mph - N/A   Clear
3:15 PM 82.4 °F 86.3 °F 69.8 °F 66% 30.10 in 10.0 mi SW 4.6 mph - N/A   Scattered Clouds
3:35 PM 82.4 °F 86.3 °F 69.8 °F 66% 30.10 in 10.0 mi SW 5.8 mph - N/A   Clear
3:55 PM 82.4 °F 86.3 °F 69.8 °F 66% 30.10 in 7.0 mi WSW 3.5 mph - N/A   Clear
4:15 PM 82.4 °F 86.3 °F 69.8 °F 66% 30.10 in 10.0 mi WSW 3.5 mph - N/A   Clear
4:35 PM 82.4 °F 86.3 °F 69.8 °F 66% 30.11 in 10.0 mi Calm Calm - N/A   Clear
4:55 PM 80.6 °F 83.9 °F 69.8 °F 70% 30.11 in 10.0 mi Calm Calm - N/A   Clear
5:15 PM 80.6 °F 84.6 °F 71.6 °F 74% 30.11 in 10.0 mi Calm Calm - N/A   Clear
5:35 PM 80.6 °F 84.6 °F 71.6 °F 74% 30.11 in 10.0 mi Calm Calm - N/A   Clear
5:55 PM 78.8 °F - 71.6 °F 78% 30.12 in 7.0 mi Calm Calm - N/A   Clear
6:15 PM 78.8 °F - 73.4 °F 83% 30.12 in 10.0 mi Calm Calm - N/A   Clear
6:55 PM 77.0 °F - 73.4 °F 89% 30.13 in 10.0 mi SW 3.5 mph - N/A   Clear
7:15 PM 78.8 °F - 71.6 °F 78% 30.13 in 10.0 mi Calm Calm - N/A   Clear
7:35 PM 77.0 °F - 71.6 °F 83% 30.13 in 10.0 mi Calm Calm - N/A   Clear
7:55 PM 77.0 °F - 71.6 °F 83% 30.14 in 10.0 mi Calm Calm - N/A   Clear
8:15 PM 75.2 °F - 71.6 °F 89% 30.15 in 10.0 mi Calm Calm - N/A   Clear
8:35 PM 75.2 °F - 69.8 °F 83% 30.16 in 7.0 mi Calm Calm - N/A   Clear
8:55 PM 75.2 °F - 68.0 °F 78% 30.17 in 10.0 mi Calm Calm - N/A   Clear
9:15 PM 75.2 °F - 68.0 °F 78% 30.18 in 10.0 mi Calm Calm - N/A   Clear
9:35 PM 75.2 °F - 68.0 °F 78% 30.18 in 10.0 mi Calm Calm - N/A   Clear
9:55 PM 75.2 °F - 68.0 °F 78% 30.19 in 10.0 mi Calm Calm - N/A   Clear
10:15 PM 75.2 °F - 69.8 °F 83% 30.19 in 10.0 mi Calm Calm - N/A   Clear
10:35 PM 75.2 °F - 69.8 °F 83% 30.20 in 10.0 mi Calm Calm - N/A Rain Light Rain
10:55 PM 75.2 °F - 69.8 °F 83% 30.21 in 10.0 mi Calm Calm - N/A   Clear
11:15 PM 75.2 °F - 69.8 °F 83% 30.20 in 10.0 mi Calm Calm - N/A   Clear
11:35 PM 73.4 °F - 71.6 °F 94% 30.21 in 10.0 mi Calm Calm - N/A Rain Light Rain
11:55 PM 73.4 °F - 71.6 °F 94% 30.20 in 10.0 mi Calm Calm - N/A   Clear